This is the latest recevied weather packets stored in our database for station/object KB3FKJ. If no packets are shown the sender has not sent any weather packets the latest 10 day(s).
| Time | Temp. | Humidity | Pressure | Rain* | Wind** | Luminosity | Snow |
|---|---|---|---|---|---|---|---|
| 1777942558 | 18.89° C | 50% | 1007.1 hPa | 0 mm | - | 0 W/m² | - |
| 1777942256 | 19.44° C | 50% | 1007.2 hPa | 0 mm | - | 0 W/m² | - |
| 1777941953 | 19.44° C | 49% | 1007.2 hPa | 0 mm | - | 0 W/m² | - |
| 1777941649 | 19.44° C | 49% | 1007.2 hPa | 0 mm | - | 0 W/m² | - |
| 1777941347 | 19.44° C | 49% | 1006.9 hPa | 0 mm | - | 0 W/m² | - |
| 1777941044 | 19.44° C | 49% | 1007.2 hPa | 0 mm | - | 0 W/m² | - |
| 1777940743 | 20° C | 48% | 1007.2 hPa | 0 mm | - | 0 W/m² | - |
| 1777940438 | 20° C | 48% | 1007 hPa | 0 mm | - | 0 W/m² | - |
| 1777940135 | 20° C | 48% | 1006.9 hPa | 0 mm | - | 1 W/m² | - |
| 1777939832 | 20° C | 47% | 1006.9 hPa | 0 mm | - | 2 W/m² | - |
| 1777939529 | 20.56° C | 46% | 1006.8 hPa | 0 mm | - | 3 W/m² | - |
| 1777939227 | 20.56° C | 47% | 1006.8 hPa | 0 mm | - | 5 W/m² | - |
| 1777938923 | 20.56° C | 47% | 1006.7 hPa | 0 mm | - | 7 W/m² | - |
| 1777938620 | 20.56° C | 47% | 1006.7 hPa | 0 mm | - | 10 W/m² | - |
| 1777938317 | 21.11° C | 46% | 1006.8 hPa | 0 mm | - | 13 W/m² | - |
| 1777938014 | 21.11° C | 46% | 1006.7 hPa | 0 mm | - | 17 W/m² | - |
| 1777937709 | 21.67° C | 45% | 1006.4 hPa | 0 mm | - | 19 W/m² | - |
| 1777937406 | 21.11° C | 46% | 1006.5 hPa | 0 mm | - | 29 W/m² | - |
| 1777937103 | 21.67° C | 45% | 1006.2 hPa | 0 mm | - | 28 W/m² | - |
| 1777936801 | 21.67° C | 44% | 1006.4 hPa | 0 mm | - | 30 W/m² | - |
| 1777936497 | 22.22° C | 42% | 1006.2 hPa | 0 mm | - | 53 W/m² | - |
| 1777936193 | 22.22° C | 43% | 1006.1 hPa | 0 mm | - | 42 W/m² | - |
| 1777935890 | 21.67° C | 43% | 1006.3 hPa | 0 mm | - | 63 W/m² | - |
| 1777935589 | 21.67° C | 44% | 1006.2 hPa | 0 mm | - | 31 W/m² | - |
| 1777935285 | 22.22° C | 44% | 1006.3 hPa | 0 mm | - | 42 W/m² | - |
* Rain latest hour (hover to see other rain measurements)
** Current wind speed in m/s (hover to see current wind gust speed)